Sharm El Sheikh, Egypt

2:43 AM EET on July 23, 2017 (GMT +0200)
Sharm El Sheikh

Weather History for HESH - November, 2012

Change the Weather History Date:

Wednesday, November 21, 2012

  Actual Average Record
Temperature  
Mean Temperature 78 °F -  
Max Temperature 87 °F 76 °F - ()
Min Temperature 69 °F 61 °F - ()
Cooling Degree Days 13    
Growing Degree Days 28 (Base 50)    
Moisture  
Dew Point 53 °F    
Average Humidity 44    
Maximum Humidity 57    
Minimum Humidity 29    
Precipitation  
Precipitation 0.00 in 0.00 in - ()
Sea Level Pressure  
Sea Level Pressure 29.91 in    
Wind  
Wind Speed 6 mph ()    
Max Wind Speed 12 mph    
Max Gust Speed -    
T = Trace of Precipitation, MM = Missing Value Source: Averaged Metar Reports

Daily Weather History Graph

Daily Weather History Graph

Search for Another Location

Airport or City:

Trip Planner

Search our weather history database for the weather conditions in past years. The results will help you decide how hot, cold, wet, or windy it might be!

Date:

Astronomy

Nov. 21, 2012 Rise Set
Actual Time 6:08 AM EET 4:47 PM EET
Civil Twilight 5:43 AM EET 5:12 PM EET
Nautical Twilight 5:15 AM EET 5:41 PM EET
Astronomical Twilight 4:47 AM EET 6:09 PM EET
Moon 12:23 PM EET (11/21) No Moon Set
Length of Visible Light 11h 29m
Length of Day
10h 38m
First Quarter, 58% of the Moon is Illuminated
Nov 21
First Quarter
Nov 28
Full
Dec 6
Last Quarter
Dec 13
New
Dec 20
First Quarter

Hourly Weather History & Observations

Time (EET) Temp. Heat Index Dew Point Humidity Pressure Visibility Wind Dir Wind Speed Gust Speed Precip Events Conditions
12:00 AM 71.6 °F - 50.0 °F 46% 29.95 in - NNW 4.6 mph - N/A   Clear
1:00 AM 71.6 °F - 46.4 °F 41% 29.95 in - NNW 5.8 mph - N/A   Clear
2:00 AM 69.8 °F - 50.0 °F 49% 29.92 in - NNW 5.8 mph - N/A   Clear
3:00 AM 69.8 °F - 51.8 °F 53% 29.92 in - NNW 5.8 mph - N/A   Clear
4:00 AM 71.6 °F - 53.6 °F 53% 29.92 in - NNW 5.8 mph - N/A   Clear
5:00 AM 69.8 °F - 51.8 °F 53% 29.92 in - North 4.6 mph - N/A   Clear
6:00 AM 69.8 °F - 50.0 °F 49% 29.92 in - North 8.1 mph - N/A   Clear
7:00 AM 69.8 °F - 53.6 °F 56% 29.95 in - North 10.4 mph - N/A   Clear
8:00 AM 77.0 °F - 53.6 °F 44% 29.95 in - North 11.5 mph - N/A   Clear
9:00 AM 80.6 °F - 50.0 °F 34% 29.95 in - North 11.5 mph - N/A   Clear
10:00 AM 84.2 °F 82.8 °F 53.6 °F 35% 29.95 in - NNE 8.1 mph - N/A   Clear
11:00 AM 86.0 °F - 51.8 °F 31% 29.92 in - NNE 6.9 mph - N/A   Clear
12:00 PM 87.8 °F 85.7 °F 53.6 °F 31% 29.92 in - NE 8.1 mph - N/A   Clear
1:00 PM 87.8 °F - 51.8 °F 29% 29.89 in - NE 5.8 mph - N/A   Clear
2:00 PM 84.2 °F - 51.8 °F 33% 29.86 in - NE 5.8 mph - N/A   Clear
3:00 PM 84.2 °F - 51.8 °F 33% 29.86 in - NNE 4.6 mph - N/A   Clear
4:00 PM 84.2 °F - 50.0 °F 30% 29.86 in - NNE 4.6 mph - N/A   Clear
5:00 PM 77.0 °F - 53.6 °F 44% 29.86 in - NNE 5.8 mph - N/A   Clear
6:00 PM 77.0 °F - 55.4 °F 47% 29.86 in - North 5.8 mph - N/A   Clear
7:00 PM 75.2 °F - 55.4 °F 50% 29.89 in - North 6.9 mph - N/A   Clear
8:00 PM 75.2 °F - 55.4 °F 50% 29.89 in - North 5.8 mph - N/A   Clear
9:06 PM 75.2 °F - 57.2 °F 53% 29.89 in - North 5.8 mph - N/A   Clear
10:00 PM 73.4 °F - 57.2 °F 57% 29.89 in - North 4.6 mph - N/A   Clear
11:00 PM 73.4 °F - 57.2 °F 57% 29.89 in - NNW 4.6 mph - N/A   Clear